Regional Weather Roundup
Issued by NWS Charleston, SC

Current Version | Previous Version | Graphics & Text | Print | Product List | Glossary On
Versions: 1 2 3 4 5 6 7 8 9 10 11 12 13 14 15 16 17 18 19 20 21 22 23 24 25 26 27 28 29 30 31 32 33 34 35 36 37 38 39 40 41 42 43 44 45 46 47 48 49 50
335
ASUS42 KCHS 282128
RWRCHS

REGIONAL WEATHER ROUNDUP
NATIONAL WEATHER SERVICE CHARLESTON SC
500 PM EDT THU JUL 28 2016

NOTE: "FAIR" INDICATES FEW OR NO CLOUDS BELOW 12,000 FEET WITH NO
SIGNIFICANT WEATHER AND/OR OBSTRUCTIONS TO VISIBILITY.

NOT ALL STATIONS ARE QUALITY CONTROLLED. USE DATA WITH CAUTION...
ESPECIALLY DEWPOINT OBSERVATIONS.

SCZ027-030-031-034>040-042>050-282200-
...SOUTHEAST SOUTH CAROLINA...

CITY           SKY/WX    TMP DP  RH WIND       PRES   REMARKS
N CHARLESTON   MOSUNNY   94  74  52 S15       29.93F HX 104
WATERFRONT PRK   N/A     89  79  72 S15       29.93F HX 104
MOUNT PLEASANT FAIR      91  77  62 S14G20    29.94S HX 105
JOHNS ISLAND   FAIR      91  79  66 S14       29.95S HX 107
PINOPOLIS        N/A     93  72  49 SW8       29.84F HX 100
MONCKS CORNER  FAIR      93  61  33 SW12      29.93S HX  93
SUMMERVILLE    NOT AVBL
BEAUFORT MCAS  MOSUNNY   98  67  36 W7G17     29.94F HX 102
BEAUFORT ARPT  FAIR      91  79  66 S14G22    29.94F HAZE    HX 107
HILTON HEAD IS MOSUNNY   95  79  59 S18       29.97F HX 112
WALTERBORO     PTCLDY    99  63  30 SW10      29.94F HX 100
ALLENDALE      MOCLDY    97  66  36 VRB6G16   29.92F HX 100

...SOUTHERN MIDLANDS AND PEE DEE...

CITY           SKY/WX    TMP DP  RH WIND       PRES   REMARKS
GEORGETOWN     FAIR      90  77  66 S13       29.93F HX 102
KINGSTREE      FAIR      97  64  34 SW13G20   29.90F HX  99
ORANGEBURG     SUNNY     98  67  36 SW15G22   29.92F HX 102
BARNWELL       NOT AVBL
AIKEN          FAIR      95  66  38 W17G24    29.96F HX  98
MANNING        FAIR      95  66  38 SW14G20   29.91S HX  98
COLUMBIA       MOSUNNY   99  64  31 W18G25    29.89F HX 101
SUMTER         SUNNY     98  67  36 SW15      29.87F HX 102
FLORENCE       SUNNY     96  70  42 SW15G22   29.89F HX 102
MYRTLE BEACH   MOSUNNY   91  72  52 S17G25    29.93F HX  98
N MYRTLE BEACH SUNNY     90  77  65 SW21G26   29.91F HX 103

$$

GAZ063-065-086>088-099>101-113>116-118-119-134>141-150-282200-
...SOUTHEAST GEORGIA...

CITY           SKY/WX    TMP DP  RH WIND       PRES   REMARKS
SAVANNAH ARPT  MOSUNNY   98  65  33 W12       29.95F HX 101
HUNTER AAF     NOT AVBL
FORT STEWART   MOSUNNY   98  64  31 W7G17     29.92F HX 100
STATESBORO     SUNNY     97  69  39 W9        29.94F HX 103
SYLVANIA       NOT AVBL
CLAXTON        FAIR      97  67  37 SW10G20   29.94F HX 102

...CSRA...CENTRAL AND FAR SOUTHEAST GEORGIA...

CITY           SKY/WX    TMP DP  RH WIND       PRES   REMARKS
THOMSON        NOT AVBL
AUGUSTA-BUSH   MOSUNNY   98  64  32 W17G26    29.91F HX 100
AUGUSTA-DANIEL MOSUNNY   97  67  37 SW12G29   29.94F HX 101
SWAINSBORO     FAIR      97  61  30 W12G23    29.96F HX  97
VIDALIA        MOSUNNY   99  63  30 SW10      29.96S HX 100
EASTMAN        FAIR      98  39  13 W8G21     29.99S HX  93
HAZLEHURST     FAIR      97  67  37 SW8       29.96S HX 100
ALMA           SUNNY     98  63  31 W10G17    29.97F HX 100
WAYCROSS       CLOUDY   102  67  31 W14       29.96F HX 107
JESUP          FAIR     100  72  39 W8        29.96F HX 109
BAXLEY         FAIR      99  70  39 W10       29.96F HX 105
BRUNSWICK      MOSUNNY   95  79  59 SE12      29.97F HX 112
SAINT SIMONS   MOSUNNY   91  77  63 S12       29.98F HX 104

$$

SCZ027-028-034-036>038-045-046-048>050-GAZ119-141-282200-
...LAKE AND SUPPLEMENTAL COASTAL OBSERVATIONS...

STATION/POSITION TIME  TEMP    WIND        PRES    WAVE   SWELL
                       AIR SEA DIR/SP/G            HT/PER HT/PER/DIR
                 (UTC) (F)     (DEG/KT/KT) (MB)    (FT/S) (FT/S/D)
WINYAH BAY       2045   89     190/ 14     1013.0S
LAKE MURRAY      2100   94     230/ 11/ 18 1011.5F
ACE BASIN NERRS  2000   96     240/  3     1014.0F
FORT PULASKI     2100   90 88  170/  8/ 17 1014.8F
SAPELO ISLAND    2100   92     160/ 14     1015.0S

$$

ANZ835-935-AMZ111-154-330-350-352-354-370-450-454-472-282200-
...C-MAN AND BUOY OBSERVATIONS...

STATION/POSITION TIME  TEMP    WIND        PRES    WAVE   SWELL
                       AIR SEA DIR/SP/G            HT/PER HT/PER/DIR
                 (UTC) (F)     (DEG/KT/KT) (MB)    (FT/S) (FT/S/D)
BUOY 41004       2050   86 87  210/ 16/ 17 1013.9F   3/ 5   2/150/ 8
BUOY 41008       2050   86 87  160/ 14/ 16 1014.8F   2/ 5   2/100/ 8
FOLLY BEACH CMAN 2100   87     200/ 16/ 19 1014.4F
CAPERS NEARSHORE 2108   86 85  220/ 17/ 23 1013.7F
FRIPP NEARSHORE  2108   87 87  190/ 16/ 21 1013.3F


STATION/POSITION TIME  TEMP    WIND        PRES    WAVE   SWELL
                       AIR SEA DIR/SP/G            HT/PER HT/PER/DIR
                 (UTC) (F)     (DEG/KT/KT) (MB)    (FT/S) (FT/S/D)
5E ST. MARYS GA  2101      86                N/A     2/ 8
FRYING PAN BUOY  2100   86 85  220/ 16/ 17 1013.1F
BUOY 41025       2050   86 86  230/ 16/ 19 1011.5F   3/ 6   2/160/ 8
CAPE LOOKOUT NC  2100   87     210/ 10/ 13 1011.7F
BUOY 41002       2050   84 85  230/  8/ 10 1015.1F   3/ 6   3/240/ 6
BUOY 41010       2050   86 88  260/  4/  8 1017.5F   2/ 8   2/110/ 8
ST AUGUSTINE FL  2100   85 86  110/ 12/ 12 1016.6F


$$




USA.gov is the U.S. government's official web portal to all federal, state and local government web resources and services.